[Date Prev][Date Next][Thread Prev][Thread Next] - [Date Index][Thread Index][Author Index]

2 Line ISS Keps 10-11



ISS
1 25544U 98067A   02284.11360476  .00045540  00000-0  51812-3 0  2423
2 25544  51.6362 190.7487 0017356 358.3284 141.4069 15.61641830222114


----
Via the sarex mailing list at AMSAT.ORG courtesy of AMSAT-NA.
To unsubscribe, send "unsubscribe sarex" to Majordomo@amsat.org



AMSAT Top AMSAT Home